Weather History for Laredo, TX

Change the Weather History Date:

Wednesday, May 2, 2012

  Actual Average Record
Temperature  
Mean Temperature 83 °F 79 °F  
Max Temperature 93 °F 90 °F 110 °F (2002)
Min Temperature 73 °F 67 °F 45 °F (1917)
Degree Days  
Heating Degree Days 0 0  
Month to date heating degree days 0 12  
Since 1 July heating degree days 674 925  
Cooling Degree Days 18 14  
Month to date cooling degree days 36 300  
Year to date cooling degree days 961 558  
Growing Degree Days 32 (Base 50)    
Moisture  
Dew Point 69 °F    
Average Humidity 69    
Maximum Humidity 87    
Minimum Humidity 46    
Precipitation  
Precipitation 0.00 in 0.06 in 2.08 in (1966)
Month to date precipitation 0.16 1.23  
Year to date precipitation 1.43 4.19  
Sea Level Pressure  
Sea Level Pressure 29.83 in    
Wind  
Wind Speed 12 mph (SSE)    
Max Wind Speed 17 mph    
Max Gust Speed 24 mph    
Visibility 10 miles    
Events      
T = Trace of Precipitation, MM = Missing Value Source: NWS Daily Summary

Daily Weather History Graph

Daily Weather History Graph

Search for Another Location

Airport:

Trip Planner

Search our weather history database for the weather conditions in past years. The results will help you decide how hot, cold, wet, or windy it might be!

Date:

Astronomy

May. 02, 2012 Rise Set
Actual Time 6:57 AM CDT 8:12 PM CDT
Civil Twilight 6:32 AM CDT 8:37 PM CDT
Nautical Twilight 6:03 AM CDT 9:06 PM CDT
Astronomical Twilight 5:32 AM CDT 9:37 PM CDT
Moon 4:44 PM CDT (5/2) 4:07 AM CDT (5/2)
Length of Visible Light 14h 04m
Length of Day
13h 15m
Waxing Gibbous, 83% of the Moon is Illuminated
May 2
Waxing Gibbous
May 5
Full
May 12
Last Quarter
May 20
New
May 28
First Quarter

Hourly Weather History & Observations

Time (CDT) Temp. Heat Index Dew Point Humidity Pressure Visibility Wind Dir Wind Speed Gust Speed Precip Events Conditions
12:56 AM 77.0 °F - 68.9 °F 76% 29.84 in 10.0 mi SE 12.7 mph - N/A   Scattered Clouds
1:56 AM 75.2 °F - 68.0 °F 78% 29.85 in 10.0 mi SSE 12.7 mph - N/A   Clear
2:56 AM 73.9 °F - 68.9 °F 84% 29.81 in 10.0 mi SSE 11.5 mph - N/A   Clear
3:56 AM 73.9 °F - 68.9 °F 84% 29.80 in 10.0 mi SSE 9.2 mph - N/A   Clear
4:25 AM 73.4 °F - 68.0 °F 83% 29.83 in 10.0 mi SSE 12.7 mph - N/A   Mostly Cloudy
4:56 AM 73.9 °F - 68.0 °F 82% 29.79 in 10.0 mi SSE 9.2 mph - N/A   Overcast
5:13 AM 73.4 °F - 69.8 °F 88% 29.84 in 10.0 mi SSE 8.1 mph - N/A   Scattered Clouds
5:20 AM 73.4 °F - 69.8 °F 88% 29.84 in 10.0 mi SE 9.2 mph - N/A   Mostly Cloudy
5:56 AM 72.9 °F - 68.9 °F 87% 29.82 in 10.0 mi SE 8.1 mph - N/A   Overcast
6:56 AM 72.9 °F - 68.9 °F 87% 29.83 in 10.0 mi SE 9.2 mph - N/A   Overcast
7:56 AM 73.9 °F - 68.9 °F 84% 29.84 in 10.0 mi ESE 11.5 mph - N/A   Overcast
8:23 AM 73.4 °F - 69.8 °F 88% 29.89 in 10.0 mi SE 10.4 mph - N/A   Overcast
8:56 AM 75.9 °F - 70.0 °F 82% 29.86 in 10.0 mi SSE 13.8 mph - N/A   Overcast
9:24 AM 77.0 °F - 69.8 °F 78% 29.90 in 10.0 mi SSE 12.7 mph - N/A   Overcast
9:56 AM 77.9 °F - 68.9 °F 74% 29.87 in 10.0 mi SSE 11.5 mph - N/A   Overcast
10:56 AM 79.9 °F - 70.0 °F 72% 29.87 in 9.0 mi South 11.5 mph - N/A   Overcast
11:56 AM 81.9 °F 85.6 °F 70.0 °F 67% 29.88 in 10.0 mi SSE 11.5 mph - N/A   Overcast
12:56 PM 84.9 °F 89.4 °F 70.0 °F 61% 29.86 in 10.0 mi SSE 10.4 mph - N/A   Overcast
1:32 PM 87.8 °F 92.6 °F 69.8 °F 55% 29.88 in 10.0 mi SE 10.4 mph - N/A   Overcast
1:56 PM 88.0 °F 92.9 °F 70.0 °F 55% 29.84 in 10.0 mi SSE 12.7 mph 18.4 mph N/A   Mostly Cloudy
2:56 PM 89.6 °F 94.7 °F 69.8 °F 52% 29.85 in 10.0 mi South 10.4 mph 17.3 mph N/A   Partly Cloudy
3:56 PM 91.9 °F 96.9 °F 68.9 °F 47% 29.79 in 9.0 mi SSE 13.8 mph - N/A   Partly Cloudy
4:56 PM 91.9 °F 95.9 °F 68.0 °F 45% 29.76 in 10.0 mi SE 12.7 mph - N/A   Mostly Cloudy
5:56 PM 92.8 °F 97.1 °F 68.0 °F 44% 29.74 in 10.0 mi South 12.7 mph - N/A   Partly Cloudy
6:56 PM 91.9 °F 95.9 °F 68.0 °F 45% 29.75 in 10.0 mi SE 16.1 mph - N/A   Scattered Clouds
7:56 PM 90.0 °F 93.6 °F 68.0 °F 48% 29.78 in 10.0 mi SSE 10.4 mph - N/A   Clear
8:56 PM 88.0 °F 91.4 °F 68.0 °F 51% 29.80 in 10.0 mi SSE 11.5 mph - N/A   Clear
9:56 PM 86.9 °F 90.3 °F 68.0 °F 53% 29.82 in 10.0 mi SE 10.4 mph - N/A   Clear
11:56 PM 83.8 °F 87.5 °F 68.9 °F 61% 29.85 in 10.0 mi South 16.1 mph - N/A   Clear